,,PA_Meas_PMT16A,,PR_Meas_QMR101_102,,RH_Meas_QMH101,,SR_Meas_QMS101,,TA_Meas_QMH101,,GenWind,,GenWind,
time,status,PA,status,PR,status,RH,status,SR,status,TA,status,DirAvg,status,SpdAvg,
2009-12-29, 00:00:05,VALID,917.936,VALID,0,VALID,97.8542,VALID,0,VALID,19.4074,VALID,4,VALID,0.791406,
2009-12-29, 00:01:05,VALID,917.899,VALID,0,VALID,97.8694,VALID,0,VALID,19.4268,VALID,4,VALID,1.01445,
2009-12-29, 00:02:05,VALID,917.92,VALID,0,VALID,97.8618,VALID,0.107441,VALID,19.4059,VALID,4,VALID,1.12812,
2009-12-29, 00:03:05,VALID,917.92,VALID,0.2,VALID,97.8847,VALID,0,VALID,19.4463,VALID,4,VALID,1.03672,
2009-12-29, 00:04:05,VALID,917.915,VALID,0,VALID,97.8618,VALID,0,VALID,19.4463,VALID,4,VALID,0.712109,
2009-12-29, 00:05:05,VALID,917.898,VALID,0.2,VALID,97.8694,VALID,0,VALID,19.4463,VALID,283,VALID,1.03242,
2009-12-29, 00:06:05,VALID,917.909,VALID,0,VALID,97.8465,VALID,0.107441,VALID,19.4059,VALID,325,VALID,0.599219,
2009-12-29, 00:07:05,VALID,917.877,VALID,0,VALID,97.877,VALID,0,VALID,19.4268,VALID,325,VALID,0.503125,
2009-12-29, 00:08:05,VALID,917.908,VALID,0.2,VALID,97.8999,VALID,0,VALID,19.4463,VALID,325,VALID,0.636328,
2009-12-29, 00:09:05,VALID,917.9,VALID,0,VALID,97.8847,VALID,0,VALID,19.4463,VALID,325,VALID,0.535156,
2009-12-29, 00:10:05,VALID,917.878,VALID,0,VALID,97.8847,VALID,0,VALID,19.4463,VALID,359,VALID,0.891406,
2009-12-29, 00:11:05,VALID,917.901,VALID,0.2,VALID,97.8542,VALID,0.107441,VALID,19.4059,VALID,7,VALID,1.24102,
2009-12-29, 00:12:05,VALID,917.884,VALID,0,VALID,97.8847,VALID,0,VALID,19.4658,VALID,7,VALID,0.659766,
2009-12-29, 00:13:05,VALID,917.91,VALID,0,VALID,97.8923,VALID,0,VALID,19.4853,VALID,33,VALID,0.788672,
2009-12-29, 00:14:05,VALID,917.905,VALID,0,VALID,97.8618,VALID,0,VALID,19.5243,VALID,33,VALID,0.393359,
2009-12-29, 00:15:05,VALID,917.881,VALID,0.2,VALID,97.8694,VALID,0.107441,VALID,19.5438,VALID,34,VALID,0.498828,
2009-12-29, 00:16:05,VALID,917.878,VALID,0,VALID,97.8542,VALID,0,VALID,19.5243,VALID,35,VALID,1.39727,
2009-12-29, 00:17:05,VALID,917.867,VALID,0,VALID,97.877,VALID,0.107441,VALID,19.5243,VALID,27,VALID,1.41445,
2009-12-29, 00:18:05,VALID,917.873,VALID,0.2,VALID,97.8618,VALID,0,VALID,19.5048,VALID,15,VALID,0.250391,
2009-12-29, 00:19:05,VALID,917.851,VALID,0,VALID,97.8542,VALID,0,VALID,19.5258,VALID,15,VALID,0.423047,
2009-12-29, 00:20:05,VALID,917.881,VALID,0,VALID,97.8847,VALID,0,VALID,19.5048,VALID,15,VALID,0.113281,
2009-12-29, 00:21:05,VALID,917.838,VALID,0,VALID,97.8847,VALID,0,VALID,19.5048,VALID,15,VALID,0.383203,
2009-12-29, 00:22:05,VALID,917.851,VALID,0,VALID,97.8465,VALID,0,VALID,19.5048,VALID,15,VALID,0.848828,
2009-12-29, 00:23:05,VALID,917.859,VALID,0.2,VALID,97.8542,VALID,0.107441,VALID,19.4658,VALID,15,VALID,0.995703,
2009-12-29, 00:24:05,VALID,917.852,VALID,0,VALID,97.8313,VALID,0.107441,VALID,19.4268,VALID,322,VALID,0.725781,
2009-12-29, 00:25:05,VALID,917.845,VALID,0,VALID,97.8465,VALID,0,VALID,19.4074,VALID,322,VALID,0.978906,
2009-12-29, 00:26:05,VALID,917.849,VALID,0,VALID,97.8694,VALID,0,VALID,19.3879,VALID,282,VALID,0.853516,
2009-12-29, 00:27:05,VALID,917.83,VALID,0.2,VALID,97.877,VALID,0.107441,VALID,19.3684,VALID,282,VALID,1.60547,
2009-12-29, 00:28:05,VALID,917.819,VALID,0,VALID,97.877,VALID,0.107441,VALID,19.4074,VALID,282,VALID,0.721094,
2009-12-29, 00:29:05,VALID,917.813,VALID,0,VALID,97.877,VALID,0.107441,VALID,19.4074,VALID,282,VALID,0.929688,
2009-12-29, 00:30:05,VALID,917.821,VALID,0,VALID,97.8542,VALID,0.107441,VALID,19.3864,VALID,282,VALID,1.10273,
2009-12-29, 00:31:05,VALID,917.795,VALID,0,VALID,97.8923,VALID,0,VALID,19.3684,VALID,283,VALID,1.08477,
2009-12-29, 00:32:05,VALID,917.821,VALID,0,VALID,97.8847,VALID,0,VALID,19.4283,VALID,283,VALID,0.808203,
2009-12-29, 00:33:05,VALID,917.822,VALID,0.2,VALID,97.877,VALID,0,VALID,19.4268,VALID,283,VALID,0.596875,
2009-12-29, 00:34:05,VALID,917.805,VALID,0,VALID,97.877,VALID,0,VALID,19.4463,VALID,283,VALID,0.521094,
2009-12-29, 00:35:05,VALID,917.813,VALID,0,VALID,97.8923,VALID,0,VALID,19.4853,VALID,283,VALID,0.601563,
2009-12-29, 00:36:05,VALID,917.797,VALID,0,VALID,97.8694,VALID,0,VALID,19.4853,VALID,283,VALID,0.678516,
2009-12-29, 00:37:05,VALID,917.808,VALID,0,VALID,97.8847,VALID,0,VALID,19.4853,VALID,283,VALID,0.639063,
2009-12-29, 00:38:05,VALID,917.784,VALID,0,VALID,97.8618,VALID,0.107441,VALID,19.4449,VALID,283,VALID,0.50625,
2009-12-29, 00:39:05,VALID,917.788,VALID,0.2,VALID,97.8847,VALID,0.107441,VALID,19.4644,VALID,283,VALID,0.572656,
2009-12-29, 00:40:05,VALID,917.784,VALID,0,VALID,97.8847,VALID,0.107441,VALID,19.4658,VALID,283,VALID,0.846484,
2009-12-29, 00:41:05,VALID,917.774,VALID,0,VALID,97.8694,VALID,0,VALID,19.4853,VALID,284,VALID,0.883594,
2009-12-29, 00:42:05,VALID,917.76,VALID,0,VALID,97.8923,VALID,0,VALID,19.4658,VALID,284,VALID,0.764063,
2009-12-29, 00:43:05,VALID,917.784,VALID,0,VALID,97.8542,VALID,0.107441,VALID,19.4449,VALID,312,VALID,0.905078,
2009-12-29, 00:44:05,VALID,917.763,VALID,0.2,VALID,97.8542,VALID,0,VALID,19.3684,VALID,30,VALID,1.875,
2009-12-29, 00:45:05,VALID,917.766,VALID,0,VALID,97.8923,VALID,0,VALID,19.3669,VALID,13,VALID,1.17031,
2009-12-29, 00:46:05,VALID,917.747,VALID,0,VALID,97.877,VALID,0,VALID,19.3879,VALID,13,VALID,1.25352,
2009-12-29, 00:47:05,VALID,917.754,VALID,0,VALID,97.8923,VALID,0.107441,VALID,19.4059,VALID,32,VALID,1.225,
2009-12-29, 00:48:05,VALID,917.775,VALID,0,VALID,97.8923,VALID,0,VALID,19.4074,VALID,64,VALID,0.864062,
2009-12-29, 00:49:05,VALID,917.787,VALID,0,VALID,97.8847,VALID,0.107441,VALID,19.4268,VALID,65,VALID,0.660156,
2009-12-29, 00:50:05,VALID,917.766,VALID,0.2,VALID,97.8618,VALID,0,VALID,19.4268,VALID,65,VALID,0.0621094,
2009-12-29, 00:51:05,VALID,917.777,VALID,0,VALID,97.8923,VALID,0,VALID,19.4074,VALID,65,VALID,0.641406,
2009-12-29, 00:52:05,VALID,917.75,VALID,0,VALID,97.877,VALID,0,VALID,19.4268,VALID,65,VALID,0.318359,
2009-12-29, 00:53:05,VALID,917.727,VALID,0,VALID,97.8923,VALID,0,VALID,19.4059,VALID,65,VALID,0.761719,
2009-12-29, 00:54:05,VALID,917.737,VALID,0,VALID,97.8999,VALID,0.107441,VALID,19.4463,VALID,65,VALID,1.27695,
2009-12-29, 00:55:05,VALID,917.722,VALID,0.2,VALID,97.8618,VALID,0.107441,VALID,19.4463,VALID,65,VALID,0.769922,
2009-12-29, 00:56:05,VALID,917.701,VALID,0,VALID,97.9075,VALID,0.107441,VALID,19.4268,VALID,65,VALID,0.00585938,
2009-12-29, 00:57:05,VALID,917.678,VALID,0,VALID,97.8847,VALID,0,VALID,19.4268,VALID,65,VALID,0.519141,
2009-12-29, 00:58:05,VALID,917.63,VALID,0,VALID,97.8847,VALID,0.107441,VALID,19.4074,VALID,65,VALID,1.1625,
2009-12-29, 00:59:05,VALID,917.618,VALID,0,VALID,97.8999,VALID,0,VALID,19.4268,VALID,50,VALID,1.51484,
2009-12-29, 01:00:05,VALID,917.578,VALID,0,VALID,97.8847,VALID,0,VALID,19.4074,VALID,20,VALID,2.23047,
2009-12-29, 01:01:05,VALID,917.58,VALID,0,VALID,97.877,VALID,0,VALID,19.3893,VALID,14,VALID,2.32188,
2009-12-29, 01:02:05,VALID,917.604,VALID,0.2,VALID,97.9228,VALID,0,VALID,19.3698,VALID,30,VALID,0.911328,
2009-12-29, 01:03:05,VALID,917.573,VALID,0,VALID,97.8923,VALID,0,VALID,19.3698,VALID,27,VALID,0.658984,
2009-12-29, 01:04:05,VALID,917.569,VALID,0,VALID,97.8847,VALID,0,VALID,19.3308,VALID,7,VALID,1.09492,
2009-12-29, 01:05:05,VALID,917.541,VALID,0,VALID,97.8694,VALID,0,VALID,19.3308,VALID,2,VALID,2.29453,
2009-12-29, 01:06:05,VALID,917.571,VALID,0,VALID,97.8999,VALID,0,VALID,19.2723,VALID,18,VALID,1.15195,
2009-12-29, 01:07:05,VALID,917.569,VALID,0,VALID,97.8999,VALID,0,VALID,19.2933,VALID,18,VALID,1.35586,
2009-12-29, 01:08:05,VALID,917.557,VALID,0,VALID,97.8999,VALID,0,VALID,19.2543,VALID,45,VALID,1.44141,
2009-12-29, 01:09:05,VALID,917.55,VALID,0,VALID,97.8999,VALID,0,VALID,19.2334,VALID,4,VALID,0.694141,
2009-12-29, 01:10:05,VALID,917.57,VALID,0.2,VALID,97.938,VALID,0,VALID,19.2528,VALID,4,VALID,0.805859,
2009-12-29, 01:11:05,VALID,917.547,VALID,0,VALID,97.9152,VALID,0,VALID,19.2723,VALID,4,VALID,1.04453,
2009-12-29, 01:12:05,VALID,917.57,VALID,0,VALID,97.9075,VALID,0,VALID,19.3503,VALID,4,VALID,0.917969,
2009-12-29, 01:13:05,VALID,917.542,VALID,0,VALID,97.9075,VALID,0,VALID,19.3308,VALID,4,VALID,0.0886719,
2009-12-29, 01:14:05,VALID,917.546,VALID,0,VALID,97.9152,VALID,0,VALID,19.3308,VALID,4,VALID,0.332812,
2009-12-29, 01:15:05,VALID,917.538,VALID,0,VALID,97.8999,VALID,0,VALID,19.3308,VALID,4,VALID,0.546875,
2009-12-29, 01:16:05,VALID,917.57,VALID,0,VALID,97.877,VALID,0,VALID,19.3099,VALID,3,VALID,0.824219,
2009-12-29, 01:17:05,VALID,917.565,VALID,0.2,VALID,97.8923,VALID,0,VALID,19.2709,VALID,3,VALID,1.16953,
2009-12-29, 01:18:05,VALID,917.526,VALID,0,VALID,97.9075,VALID,0.107441,VALID,19.2514,VALID,6,VALID,1.20547,
2009-12-29, 01:19:05,VALID,917.513,VALID,0,VALID,97.9228,VALID,0,VALID,19.2709,VALID,16,VALID,1.30859,
2009-12-29, 01:20:05,VALID,917.542,VALID,0,VALID,97.9228,VALID,0,VALID,19.2904,VALID,16,VALID,0.622656,
2009-12-29, 01:21:05,VALID,917.51,VALID,0,VALID,97.9152,VALID,0,VALID,19.3099,VALID,16,VALID,1.00586,
2009-12-29, 01:22:05,VALID,917.534,VALID,0,VALID,97.9152,VALID,0,VALID,19.2709,VALID,2,VALID,1.57695,
2009-12-29, 01:23:05,VALID,917.524,VALID,0,VALID,97.8847,VALID,0.107441,VALID,19.2319,VALID,339,VALID,0.8,
2009-12-29, 01:24:05,VALID,917.487,VALID,0.2,VALID,97.9152,VALID,0,VALID,19.2514,VALID,9,VALID,0.729688,
2009-12-29, 01:25:05,VALID,917.515,VALID,0,VALID,97.938,VALID,0.107441,VALID,19.2709,VALID,9,VALID,0.503516,
2009-12-29, 01:26:05,VALID,917.503,VALID,0,VALID,97.9152,VALID,0,VALID,19.2709,VALID,9,VALID,0.724219,
2009-12-29, 01:27:05,VALID,917.51,VALID,0,VALID,97.9228,VALID,0.107441,VALID,19.2904,VALID,9,VALID,0.351953,
2009-12-29, 01:28:05,VALID,917.442,VALID,0,VALID,97.9304,VALID,0.107441,VALID,19.3294,VALID,9,VALID,0.358984,
2009-12-29, 01:29:05,VALID,917.452,VALID,0.2,VALID,97.9152,VALID,0,VALID,19.2904,VALID,9,VALID,0.329297,
2009-12-29, 01:30:05,VALID,917.458,VALID,0,VALID,97.9075,VALID,0,VALID,19.2904,VALID,9,VALID,1.04062,
2009-12-29, 01:31:05,VALID,917.451,VALID,0,VALID,97.9228,VALID,0,VALID,19.2904,VALID,9,VALID,0.904688,
2009-12-29, 01:32:05,VALID,917.442,VALID,0,VALID,97.9152,VALID,0.107441,VALID,19.3099,VALID,9,VALID,0.469922,
2009-12-29, 01:33:05,VALID,917.415,VALID,0.2,VALID,97.9304,VALID,0,VALID,19.2709,VALID,352,VALID,0.821875,
2009-12-29, 01:34:05,VALID,917.414,VALID,0,VALID,97.9075,VALID,0,VALID,19.2709,VALID,352,VALID,0.873047,
2009-12-29, 01:35:05,VALID,917.409,VALID,0,VALID,97.9456,VALID,0,VALID,19.3294,VALID,352,VALID,0.838672,
2009-12-29, 01:36:05,VALID,917.415,VALID,0.2,VALID,97.9152,VALID,0,VALID,19.3099,VALID,352,VALID,1.00156,
2009-12-29, 01:37:05,VALID,917.413,VALID,0,VALID,97.9228,VALID,0.107441,VALID,19.2904,VALID,351,VALID,0.998438,
2009-12-29, 01:38:05,VALID,917.394,VALID,0,VALID,97.9152,VALID,0,VALID,19.3099,VALID,43,VALID,0.616797,
2009-12-29, 01:39:05,VALID,917.393,VALID,0,VALID,97.9228,VALID,0,VALID,19.3294,VALID,43,VALID,0.469531,
2009-12-29, 01:40:05,VALID,917.378,VALID,0.2,VALID,97.9152,VALID,0,VALID,19.2904,VALID,43,VALID,0.739062,
2009-12-29, 01:41:05,VALID,917.373,VALID,0,VALID,97.9075,VALID,0,VALID,19.2709,VALID,43,VALID,0.385547,
2009-12-29, 01:42:05,VALID,917.372,VALID,0,VALID,97.9075,VALID,0,VALID,19.2694,VALID,43,VALID,0.221875,
2009-12-29, 01:43:05,VALID,917.367,VALID,0.2,VALID,97.9152,VALID,0.107441,VALID,19.3099,VALID,43,VALID,0.152734,
2009-12-29, 01:44:05,VALID,917.362,VALID,0,VALID,97.9075,VALID,0,VALID,19.3294,VALID,43,VALID,0,
2009-12-29, 01:45:05,VALID,917.355,VALID,0,VALID,97.9304,VALID,0,VALID,19.2904,VALID,43,VALID,0.478125,
2009-12-29, 01:46:05,VALID,917.333,VALID,0.2,VALID,97.8999,VALID,0,VALID,19.2514,VALID,43,VALID,0,
2009-12-29, 01:47:05,VALID,917.347,VALID,0,VALID,97.9075,VALID,0,VALID,19.2709,VALID,43,VALID,0.284766,
2009-12-29, 01:48:05,VALID,917.345,VALID,0,VALID,97.9456,VALID,0,VALID,19.2918,VALID,43,VALID,0.404687,
2009-12-29, 01:49:05,VALID,917.301,VALID,0.2,VALID,97.9304,VALID,0,VALID,19.3099,VALID,43,VALID,0.54375,
2009-12-29, 01:50:05,VALID,917.293,VALID,0,VALID,97.9228,VALID,0,VALID,19.3489,VALID,43,VALID,0.451953,
2009-12-29, 01:51:05,VALID,917.258,VALID,0.2,VALID,97.9075,VALID,0.107441,VALID,19.3684,VALID,43,VALID,0.846875,
2009-12-29, 01:52:05,VALID,917.237,VALID,0,VALID,97.9228,VALID,0,VALID,19.3294,VALID,43,VALID,1.10664,
2009-12-29, 01:53:05,VALID,917.257,VALID,0.2,VALID,97.9228,VALID,0,VALID,19.3099,VALID,43,VALID,1.15977,
2009-12-29, 01:54:05,VALID,917.245,VALID,0,VALID,97.9152,VALID,0,VALID,19.3503,VALID,43,VALID,0.945313,
2009-12-29, 01:55:05,VALID,917.252,VALID,0.2,VALID,97.9075,VALID,0,VALID,19.3489,VALID,43,VALID,1.19961,
2009-12-29, 01:56:05,VALID,917.213,VALID,0,VALID,97.9152,VALID,0,VALID,19.3489,VALID,26,VALID,1.14063,
2009-12-29, 01:57:05,VALID,917.197,VALID,0,VALID,97.9228,VALID,0,VALID,19.3099,VALID,30,VALID,1.18242,
2009-12-29, 01:58:05,VALID,917.158,VALID,0.2,VALID,97.9152,VALID,0,VALID,19.2904,VALID,30,VALID,1.52109,
2009-12-29, 01:59:05,VALID,917.098,VALID,0,VALID,97.938,VALID,0,VALID,19.2514,VALID,356,VALID,1.42266,
2009-12-29, 02:00:05,VALID,917.111,VALID,0,VALID,97.9228,VALID,0,VALID,19.2709,VALID,356,VALID,1.16055,
2009-12-29, 02:01:05,VALID,917.08,VALID,0,VALID,97.9152,VALID,0,VALID,19.3113,VALID,356,VALID,1.50859,
2009-12-29, 02:02:05,VALID,917.075,VALID,0,VALID,97.9228,VALID,0.107441,VALID,19.2904,VALID,356,VALID,1.30742,
2009-12-29, 02:03:05,VALID,917.092,VALID,0.2,VALID,97.938,VALID,0.107441,VALID,19.3099,VALID,356,VALID,0.571875,
2009-12-29, 02:04:05,VALID,917.072,VALID,0,VALID,97.9228,VALID,0,VALID,19.3294,VALID,356,VALID,0.409375,
2009-12-29, 02:05:05,VALID,917.067,VALID,0,VALID,97.9456,VALID,0,VALID,19.3294,VALID,356,VALID,0.539453,
2009-12-29, 02:06:05,VALID,917.049,VALID,0,VALID,97.9228,VALID,0,VALID,19.3489,VALID,356,VALID,0.451172,
2009-12-29, 02:07:05,VALID,917.022,VALID,0,VALID,97.9075,VALID,0,VALID,19.3294,VALID,356,VALID,0.871484,
2009-12-29, 02:08:05,VALID,916.996,VALID,0,VALID,97.9304,VALID,0.107441,VALID,19.3099,VALID,356,VALID,1.13047,
2009-12-29, 02:09:05,VALID,916.998,VALID,0,VALID,97.9152,VALID,0,VALID,19.3294,VALID,356,VALID,0.781641,
2009-12-29, 02:10:05,VALID,916.991,VALID,0.2,VALID,97.9228,VALID,0.107441,VALID,19.3099,VALID,356,VALID,0.922266,
2009-12-29, 02:11:05,VALID,916.976,VALID,0,VALID,97.9075,VALID,0.107441,VALID,19.3099,VALID,356,VALID,0.614844,
2009-12-29, 02:12:05,VALID,916.968,VALID,0,VALID,97.8999,VALID,0,VALID,19.2904,VALID,356,VALID,1.02148,
2009-12-29, 02:13:05,VALID,916.947,VALID,0,VALID,97.9075,VALID,0.107441,VALID,19.2514,VALID,356,VALID,0.558203,
2009-12-29, 02:14:05,VALID,916.906,VALID,0,VALID,97.8999,VALID,0,VALID,19.2124,VALID,356,VALID,0.832422,
2009-12-29, 02:15:05,VALID,916.9,VALID,0,VALID,97.9304,VALID,0,VALID,19.2319,VALID,356,VALID,1.13789,
2009-12-29, 02:16:05,VALID,916.89,VALID,0,VALID,97.9304,VALID,0,VALID,19.2139,VALID,355,VALID,0.918359,
2009-12-29, 02:17:05,VALID,916.861,VALID,0,VALID,97.9533,VALID,0,VALID,19.2124,VALID,355,VALID,0.663281,
2009-12-29, 02:18:05,VALID,916.814,VALID,0,VALID,97.9304,VALID,0,VALID,19.1929,VALID,355,VALID,0.575391,
2009-12-29, 02:19:05,VALID,916.843,VALID,0.2,VALID,97.9609,VALID,0,VALID,19.2124,VALID,349,VALID,1.13555,
2009-12-29, 02:20:05,VALID,916.754,VALID,0,VALID,97.938,VALID,0,VALID,19.1734,VALID,346,VALID,1.17695,
2009-12-29, 02:21:05,VALID,916.736,VALID,0,VALID,97.9533,VALID,0,VALID,19.2139,VALID,346,VALID,0.329688,
2009-12-29, 02:22:05,VALID,916.75,VALID,0,VALID,97.9533,VALID,0,VALID,19.2139,VALID,346,VALID,1.40313,
2009-12-29, 02:23:05,VALID,916.695,VALID,0,VALID,97.938,VALID,0,VALID,19.2139,VALID,346,VALID,1.05313,
2009-12-29, 02:24:05,VALID,916.727,VALID,0,VALID,97.9456,VALID,0,VALID,19.2334,VALID,346,VALID,0.992969,
2009-12-29, 02:25:05,VALID,916.668,VALID,0,VALID,97.9533,VALID,0,VALID,19.2319,VALID,346,VALID,1.23047,
2009-12-29, 02:26:05,VALID,916.635,VALID,0,VALID,97.9228,VALID,0,VALID,19.2528,VALID,342,VALID,1.23047,
2009-12-29, 02:27:05,VALID,916.63,VALID,0,VALID,97.9609,VALID,0,VALID,19.2139,VALID,342,VALID,1.03437,
2009-12-29, 02:28:05,VALID,916.617,VALID,0,VALID,97.9533,VALID,0,VALID,19.2139,VALID,342,VALID,1.11602,
2009-12-29, 02:29:05,VALID,916.629,VALID,0,VALID,97.9533,VALID,0,VALID,19.2528,VALID,342,VALID,1.61211,
2009-12-29, 02:30:05,VALID,916.604,VALID,0,VALID,97.9304,VALID,0,VALID,19.2723,VALID,342,VALID,1.13437,
2009-12-29, 02:31:05,VALID,916.614,VALID,0,VALID,97.9609,VALID,0,VALID,19.2514,VALID,341,VALID,1.1043,
2009-12-29, 02:32:05,VALID,916.573,VALID,0,VALID,97.938,VALID,0.107441,VALID,19.2124,VALID,340,VALID,0.933203,
2009-12-29, 02:33:05,VALID,916.561,VALID,0,VALID,97.9533,VALID,0.107441,VALID,19.2319,VALID,340,VALID,0.617578,
2009-12-29, 02:34:05,VALID,916.544,VALID,0,VALID,97.9456,VALID,0,VALID,19.2319,VALID,340,VALID,0.578125,
2009-12-29, 02:35:05,VALID,916.552,VALID,0.2,VALID,97.9456,VALID,0.107441,VALID,19.2109,VALID,340,VALID,0.701563,
2009-12-29, 02:36:05,VALID,916.551,VALID,0,VALID,97.938,VALID,0,VALID,19.2514,VALID,340,VALID,1.20039,
2009-12-29, 02:37:05,VALID,916.527,VALID,0,VALID,97.9456,VALID,0.107441,VALID,19.2304,VALID,340,VALID,1.18477,
2009-12-29, 02:38:05,VALID,916.5,VALID,0,VALID,97.9304,VALID,0.107441,VALID,19.172,VALID,340,VALID,1.44727,
2009-12-29, 02:39:05,VALID,916.459,VALID,0,VALID,97.9609,VALID,0.107441,VALID,19.1539,VALID,340,VALID,1.6418,
2009-12-29, 02:40:05,VALID,916.455,VALID,0,VALID,97.938,VALID,0.107441,VALID,19.1539,VALID,36,VALID,1.48242,
2009-12-29, 02:41:05,VALID,916.453,VALID,0,VALID,97.9456,VALID,0.107441,VALID,19.1344,VALID,36,VALID,0.996875,
2009-12-29, 02:42:05,VALID,916.397,VALID,0,VALID,97.9152,VALID,0,VALID,19.0954,VALID,355,VALID,2.01172,
2009-12-29, 02:43:05,VALID,916.416,VALID,0,VALID,97.9228,VALID,0.107441,VALID,19.0369,VALID,344,VALID,1.74883,
2009-12-29, 02:44:05,VALID,916.41,VALID,0,VALID,97.9761,VALID,0.107441,VALID,19.0759,VALID,15,VALID,1.61289,
2009-12-29, 02:45:04,VALID,916.369,VALID,0,VALID,97.9685,VALID,0.107441,VALID,19.0954,VALID,13,VALID,1.68203,
2009-12-29, 02:46:04,VALID,916.335,VALID,0,VALID,97.9685,VALID,0,VALID,19.0969,VALID,3,VALID,1.30039,
2009-12-29, 02:47:04,VALID,916.334,VALID,0,VALID,97.9533,VALID,0,VALID,19.1164,VALID,3,VALID,0.926953,
2009-12-29, 02:48:04,VALID,916.33,VALID,0,VALID,97.9456,VALID,0,VALID,19.0969,VALID,352,VALID,0.938281,
2009-12-29, 02:49:04,VALID,916.293,VALID,0,VALID,97.9685,VALID,0,VALID,19.0969,VALID,359,VALID,1.23438,
2009-12-29, 02:50:04,VALID,916.289,VALID,0,VALID,97.9761,VALID,0,VALID,19.0384,VALID,327,VALID,0.896484,
2009-12-29, 02:51:04,VALID,916.286,VALID,0,VALID,97.9761,VALID,0,VALID,19.0189,VALID,357,VALID,0.892969,
2009-12-29, 02:52:04,VALID,916.256,VALID,0,VALID,97.9609,VALID,0,VALID,18.9994,VALID,350,VALID,1.10547,
2009-12-29, 02:53:04,VALID,916.246,VALID,0,VALID,97.9609,VALID,0,VALID,18.9994,VALID,350,VALID,1.30859,
2009-12-29, 02:54:04,VALID,916.222,VALID,0,VALID,97.9533,VALID,0,VALID,18.998,VALID,350,VALID,1.03867,
2009-12-29, 02:55:04,VALID,916.198,VALID,0,VALID,97.9761,VALID,0,VALID,19.0189,VALID,350,VALID,1.08711,
2009-12-29, 02:56:04,VALID,916.235,VALID,0,VALID,97.9456,VALID,0,VALID,18.9799,VALID,350,VALID,1.27891,
2009-12-29, 02:57:04,VALID,916.213,VALID,0,VALID,97.9609,VALID,0,VALID,18.9604,VALID,348,VALID,1.56406,
2009-12-29, 02:58:04,VALID,916.199,VALID,0,VALID,97.9685,VALID,0,VALID,18.9409,VALID,28,VALID,1.67969,
2009-12-29, 02:59:04,VALID,916.229,VALID,0,VALID,97.9685,VALID,0,VALID,18.9214,VALID,29,VALID,1.15195,
2009-12-29, 03:00:04,VALID,916.212,VALID,0,VALID,97.9838,VALID,0,VALID,18.9214,VALID,29,VALID,1.02539,
2009-12-29, 03:01:04,VALID,916.216,VALID,0,VALID,97.9761,VALID,0,VALID,18.92,VALID,29,VALID,1.00156,
2009-12-29, 03:02:04,VALID,916.191,VALID,0,VALID,97.9761,VALID,0.107441,VALID,18.9395,VALID,29,VALID,1.2043,
2009-12-29, 03:03:04,VALID,916.17,VALID,0,VALID,97.9761,VALID,0,VALID,18.92,VALID,29,VALID,0.852344,
2009-12-29, 03:04:04,VALID,916.147,VALID,0,VALID,97.9761,VALID,0,VALID,18.9214,VALID,29,VALID,1.29766,
2009-12-29, 03:05:04,VALID,916.117,VALID,0,VALID,97.9838,VALID,0,VALID,18.9005,VALID,29,VALID,0.565234,
2009-12-29, 03:06:04,VALID,916.125,VALID,0,VALID,98.0066,VALID,0.107441,VALID,18.9005,VALID,29,VALID,0.926562,
2009-12-29, 03:07:04,VALID,916.13,VALID,0,VALID,97.9761,VALID,0.107441,VALID,18.881,VALID,29,VALID,0.921875,
2009-12-29, 03:08:04,VALID,916.137,VALID,0,VALID,97.9914,VALID,0,VALID,18.9005,VALID,29,VALID,0.795313,
2009-12-29, 03:09:04,VALID,916.117,VALID,0,VALID,97.9838,VALID,0.107441,VALID,18.9214,VALID,29,VALID,0.801562,
2009-12-29, 03:10:04,VALID,916.134,VALID,0,VALID,97.9609,VALID,0,VALID,18.9005,VALID,29,VALID,1.06992,
2009-12-29, 03:11:04,VALID,916.117,VALID,0,VALID,97.9761,VALID,0,VALID,18.9005,VALID,21,VALID,1.99609,
2009-12-29, 03:12:04,VALID,916.081,VALID,0,VALID,97.9761,VALID,0.107441,VALID,18.881,VALID,7,VALID,1.51484,
2009-12-29, 03:13:04,VALID,916.103,VALID,0,VALID,97.999,VALID,0.107441,VALID,18.8406,VALID,23,VALID,1.37383,
2009-12-29, 03:14:04,VALID,916.084,VALID,0,VALID,97.9838,VALID,0.107441,VALID,18.881,VALID,57,VALID,0.742188,
2009-12-29, 03:15:04,VALID,916.08,VALID,0,VALID,97.9914,VALID,0.107441,VALID,18.8615,VALID,56,VALID,1.0168,
2009-12-29, 03:16:04,VALID,916.061,VALID,0,VALID,98.0219,VALID,0.107441,VALID,18.8615,VALID,56,VALID,1.11328,
2009-12-29, 03:17:04,VALID,916.039,VALID,0,VALID,97.999,VALID,0.107441,VALID,18.8615,VALID,30,VALID,1.60781,
2009-12-29, 03:18:04,VALID,916.063,VALID,0,VALID,97.999,VALID,0,VALID,18.842,VALID,1,VALID,1.10156,
2009-12-29, 03:19:04,VALID,916.008,VALID,0,VALID,97.9914,VALID,0.107441,VALID,18.8225,VALID,346,VALID,0.930469,
2009-12-29, 03:20:04,VALID,916.006,VALID,0,VALID,98.0066,VALID,0,VALID,18.8225,VALID,345,VALID,0.9875,
2009-12-29, 03:21:04,VALID,915.994,VALID,0,VALID,97.9761,VALID,0.107441,VALID,18.8225,VALID,345,VALID,0.976953,
2009-12-29, 03:22:04,VALID,916.016,VALID,0,VALID,97.999,VALID,0.107441,VALID,18.8225,VALID,335,VALID,0.755469,
2009-12-29, 03:23:04,VALID,916.015,VALID,0,VALID,98.0143,VALID,0,VALID,18.803,VALID,338,VALID,1.24961,
2009-12-29, 03:24:04,VALID,915.981,VALID,0,VALID,98.0143,VALID,0,VALID,18.842,VALID,356,VALID,0.743359,
2009-12-29, 03:25:04,VALID,915.982,VALID,0,VALID,97.999,VALID,0.107441,VALID,18.842,VALID,356,VALID,0.59375,
2009-12-29, 03:26:04,VALID,915.965,VALID,0,VALID,97.999,VALID,0,VALID,18.803,VALID,357,VALID,1.06406,
2009-12-29, 03:27:04,VALID,915.96,VALID,0.2,VALID,98.0066,VALID,0,VALID,18.8225,VALID,357,VALID,0.676953,
2009-12-29, 03:28:04,VALID,915.954,VALID,0,VALID,97.9838,VALID,0.107441,VALID,18.842,VALID,25,VALID,1.06523,
2009-12-29, 03:29:04,VALID,915.928,VALID,0,VALID,97.9914,VALID,0.107441,VALID,18.842,VALID,11,VALID,1.15859,
2009-12-29, 03:30:04,VALID,915.929,VALID,0,VALID,97.999,VALID,0.107441,VALID,18.842,VALID,10,VALID,0.660156,
2009-12-29, 03:31:04,VALID,915.917,VALID,0,VALID,98.0219,VALID,0,VALID,18.8225,VALID,260,VALID,0.338281,
2009-12-29, 03:32:04,VALID,915.937,VALID,0,VALID,97.999,VALID,0,VALID,18.8225,VALID,260,VALID,0.862891,
2009-12-29, 03:33:04,VALID,915.947,VALID,0,VALID,98.0219,VALID,0.107441,VALID,18.8225,VALID,261,VALID,0.741016,
2009-12-29, 03:34:04,VALID,915.92,VALID,0,VALID,98.0066,VALID,0,VALID,18.7835,VALID,352,VALID,1.17148,
2009-12-29, 03:35:04,VALID,915.926,VALID,0,VALID,98.0066,VALID,0,VALID,18.764,VALID,9,VALID,1.73438,
2009-12-29, 03:36:04,VALID,915.921,VALID,0,VALID,97.999,VALID,0,VALID,18.7835,VALID,38,VALID,0.427734,
2009-12-29, 03:37:04,VALID,915.927,VALID,0,VALID,98.0066,VALID,0,VALID,18.764,VALID,4,VALID,1.04258,
2009-12-29, 03:38:04,VALID,915.917,VALID,0,VALID,97.999,VALID,0.107441,VALID,18.7835,VALID,8,VALID,1.34492,
2009-12-29, 03:39:04,VALID,915.906,VALID,0,VALID,98.0295,VALID,0.107441,VALID,18.803,VALID,12,VALID,1.62031,
2009-12-29, 03:40:04,VALID,915.903,VALID,0,VALID,98.0219,VALID,0.107441,VALID,18.8225,VALID,12,VALID,1.52578,
2009-12-29, 03:41:04,VALID,915.882,VALID,0,VALID,98.0295,VALID,0.107441,VALID,18.842,VALID,8,VALID,1.7543,